This is the latest recevied weather packets stored in our database for station/object DK4EP-10. If no packets are shown the sender has not sent any weather packets the latest 10 day(s).
| Time | Temp. | Humidity | Pressure | Rain* | Wind** | Luminosity | Snow |
|---|---|---|---|---|---|---|---|
| 1777128313 | 18.33° C | 100% | 990 hPa | - | - | - | - |
| 1777127411 | 18.33° C | 46% | 990 hPa | - | - | - | - |
| 1777126509 | 18.89° C | 48% | 991 hPa | - | - | - | - |
| 1777125608 | 18.33° C | 51% | 991 hPa | - | - | - | - |
| 1777124707 | 18.33° C | 51% | 991 hPa | - | - | - | - |
| 1777123806 | 18.33° C | 49% | 991 hPa | - | - | - | - |
| 1777122904 | 17.78° C | 51% | 991 hPa | - | - | - | - |
| 1777122003 | 17.78° C | 53% | 991 hPa | - | - | - | - |
| 1777121102 | 16.67° C | 51% | 991 hPa | - | - | - | - |
| 1777120201 | 17.78° C | 51% | 991 hPa | - | - | - | - |
| 1777119300 | 16.67° C | 53% | 991 hPa | - | - | - | - |
| 1777118398 | 17.78° C | 54% | 992 hPa | - | - | - | - |
| 1777116596 | 16.67° C | 56% | 992 hPa | - | - | - | - |
| 1777115695 | 16.67° C | 58% | 992 hPa | - | - | - | - |
| 1777114794 | 15° C | 63% | 992 hPa | - | - | - | - |
| 1777113893 | 14.44° C | 60% | 992 hPa | - | - | - | - |
| 1777112992 | 13.89° C | 66% | 992 hPa | - | - | - | - |
| 1777112090 | 13.33° C | 66% | 992 hPa | - | - | - | - |
| 1777111189 | 13.89° C | 64% | 992 hPa | - | - | - | - |
| 1777110288 | 13.33° C | 67% | 993 hPa | - | - | - | - |
| 1777109387 | 12.22° C | 70% | 993 hPa | - | - | - | - |
| 1777108486 | 12.78° C | 69% | 993 hPa | - | - | - | - |
| 1777107584 | 12.22° C | 72% | 993 hPa | - | - | - | - |
| 1777106683 | 11.67° C | 75% | 993 hPa | - | - | - | - |
| 1777105782 | 11.67° C | 76% | 993 hPa | - | - | - | - |
* Rain since midnight (hover to see other rain measurements)
** Current wind speed in m/s (hover to see current wind gust speed)